Weather History for KHYA - February, 2013

Change the Weather History Date:

Monday, February 4, 2013

  Actual Average Record
Temperature  
Mean Temperature 28 °F -  
Max Temperature 32 °F 38 °F 55 °F (1952)
Min Temperature 23 °F 21 °F 0 °F (1971)
Degree Days  
Heating Degree Days 38    
Moisture  
Dew Point 12 °F    
Average Humidity 56    
Maximum Humidity 85    
Minimum Humidity 37    
Precipitation  
Precipitation 0.00 in - - ()
Sea Level Pressure  
Sea Level Pressure 29.78 in    
Wind  
Wind Speed 11 mph (WNW)    
Max Wind Speed 18 mph    
Max Gust Speed 29 mph    
Visibility 9 miles    
Events Snow    
Averages and records for this station are not official NWS values.
T = Trace of Precipitation, MM = Missing Value Source: NWS Daily Summary

Daily Weather History Graph

Daily Weather History Graph

Search for Another Location

Airport or City:

Trip Planner

Search our weather history database for the weather conditions in past years. The results will help you decide how hot, cold, wet, or windy it might be!

Date:

Astronomy

Feb. 04, 2013 Rise Set
Actual Time 6:49 AM EST 5:00 PM EST
Civil Twilight 6:20 AM EST 5:30 PM EST
Nautical Twilight 5:47 AM EST 6:03 PM EST
Astronomical Twilight 5:15 AM EST 6:35 PM EST
Moon 1:22 AM EST (2/4) 11:20 AM EST (2/4)
Length of Visible Light 11h 09m
Length of Day
10h 11m
Last Quarter, 37% of the Moon is Illuminated
Feb 4
Last Quarter
Feb 10
New
Feb 17
First Quarter
Feb 25
Full
Mar 4
Last Quarter

Hourly Weather History & Observations

Time (EST) Temp. Windchill Dew Point Humidity Pressure Visibility Wind Dir Wind Speed Gust Speed Precip Events Conditions
12:26 AM 26.6 °F 16.2 °F 21.2 °F 80% 29.67 in 2.5 mi NNW 11.5 mph 24.2 mph 0.00 in Snow Light Snow
12:32 AM 26.6 °F 16.8 °F 21.2 °F 80% 29.67 in 3.0 mi NW 10.4 mph 24.2 mph 0.00 in Snow Light Snow
12:56 AM 26.1 °F 16.2 °F 21.0 °F 81% 29.68 in 10.0 mi NW 10.4 mph 24.2 mph 0.00 in   Overcast
1:56 AM 26.1 °F 19.4 °F 21.0 °F 81% 29.70 in 5.0 mi NW 5.8 mph 17.3 mph 0.00 in Snow Light Snow
2:56 AM 25.0 °F 16.3 °F 19.0 °F 78% 29.69 in 10.0 mi WNW 8.1 mph - 0.00 in   Overcast
3:56 AM 23.0 °F 14.7 °F 19.0 °F 85% 29.70 in 10.0 mi West 6.9 mph - N/A   Clear
5:56 AM 23.0 °F 13.1 °F 12.9 °F 65% 29.73 in 10.0 mi NW 9.2 mph - N/A   Overcast
6:56 AM 23.0 °F 13.9 °F 12.0 °F 63% 29.75 in 10.0 mi WNW 8.1 mph - N/A   Clear
7:56 AM 25.0 °F 13.6 °F 12.0 °F 58% 29.76 in 10.0 mi WNW 12.7 mph 21.9 mph N/A   Clear
8:56 AM 27.0 °F 16.1 °F 10.9 °F 51% 29.77 in 10.0 mi WNW 12.7 mph 23.0 mph N/A   Clear
9:56 AM 28.0 °F 15.3 °F 10.0 °F 47% 29.77 in 10.0 mi West 18.4 mph 28.8 mph N/A   Clear
10:56 AM 30.0 °F 19.1 °F 10.0 °F 43% 29.78 in 10.0 mi West 15.0 mph 27.6 mph N/A   Clear
11:56 AM 30.9 °F 19.8 °F 9.0 °F 40% 29.76 in 10.0 mi West 16.1 mph 24.2 mph N/A   Clear
12:56 PM 32.0 °F 20.5 °F 9.0 °F 38% 29.76 in 10.0 mi West 18.4 mph 27.6 mph N/A   Mostly Cloudy
1:56 PM 32.0 °F 20.5 °F 8.1 °F 37% 29.76 in 10.0 mi West 18.4 mph 25.3 mph N/A   Partly Cloudy
2:56 PM 30.9 °F 20.7 °F 8.1 °F 38% 29.78 in 10.0 mi WNW 13.8 mph 23.0 mph N/A   Partly Cloudy
3:56 PM 28.9 °F 17.7 °F 8.1 °F 41% 29.80 in 10.0 mi WNW 15.0 mph 24.2 mph N/A   Partly Cloudy
4:56 PM 28.0 °F 17.0 °F 7.0 °F 41% 29.81 in 10.0 mi WNW 13.8 mph 21.9 mph N/A   Clear
5:56 PM 28.0 °F 17.5 °F 6.1 °F 39% 29.84 in 10.0 mi WNW 12.7 mph 19.6 mph N/A   Clear
6:56 PM 27.0 °F 18.0 °F 7.0 °F 43% 29.87 in 10.0 mi West 9.2 mph - N/A   Clear
8:56 PM 25.0 °F 18.1 °F 8.1 °F 49% 29.91 in 10.0 mi West 5.8 mph - N/A   Clear
9:56 PM 24.1 °F 18.2 °F 9.0 °F 53% 29.92 in 10.0 mi West 4.6 mph - N/A   Clear
10:56 PM 24.1 °F 15.2 °F 9.0 °F 53% 29.93 in 10.0 mi West 8.1 mph - N/A   Scattered Clouds
11:56 PM 24.1 °F 14.4 °F 10.0 °F 55% 29.94 in 10.0 mi West 9.2 mph - N/A   Overcast